Regional Weather Roundup
Issued by NWS

Home | Current Version | Previous Version | Text Only | Print | Product List | Glossary On
Versions: 1 2 3 4 5 6 7 8 9 10 11 12 13 14 15 16 17 18 19 20 21 22 23 24 25 26 27 28
000
ASUS45 KREV 171010
RWRNV
NEVADA REGIONAL WEATHER ROUNDUP
NATIONAL WEATHER SERVICE RENO NV
300 AM PDT TUE OCT 17 2017

NOTE: "FAIR" INDICATES FEW OR NO CLOUDS BELOW 12,000 FEET WITH NO
SIGNIFICANT WEATHER AND/OR OBSTRUCTIONS TO VISIBILITY.

NVZ001-003-004-171100-
WESTERN NEVADA

CITY           SKY/WX    TMP DP  RH WIND       PRES   REMARKS
RENO           MOCLDY    42  26  53 CALM      30.26F
CARSON CITY    FAIR      36  16  44 CALM      30.29F
MINDEN         FAIR      30  14  51 S3        30.29S
FALLON         PTCLDY    38  16  40 S6        30.23F
LOVELOCK       MOCLDY    25  14  63 CALM      30.25F
HAWTHORNE      CLEAR     43  12  28 S6        30.26F
$$

NVZ002-CAZ072-073-171100-
NORTHERN AND CENTRAL SIERRA

CITY           SKY/WX    TMP DP  RH WIND       PRES   REMARKS
S. LAKE TAHOE  CLEAR     29  21  72 CALM      30.35F
TRUCKEE        CLEAR     28  18  64 CALM      30.35S
SQUAW VLY 8000   N/A     50  12  22 SW10        N/A
SUSANVILLE     CLEAR     37  21  52 W5        30.25F
BLUE CANYON    PTCLDY    60   6  11 SE3       30.30F
MAMMOTH LAKES  FAIR      31   9  39 CALM      30.41S
BRIDGEPORT     FAIR      30  13  49 CALM      30.36F
$$

NVZ030-031-036-171100-
NORTHERN NEVADA

CITY           SKY/WX    TMP DP  RH WIND       PRES   REMARKS
ELKO           FLURRIES  32  15  49 E3        30.31F
WINNEMUCCA     MOCLDY    28   9  44 S3        30.26S
WENDOVER       MOCLDY    36  18  48 CALM      30.32F
$$

NVZ035-037-171100-
CENTRAL NEVADA

CITY           SKY/WX    TMP DP  RH WIND       PRES   REMARKS
ELY            PTCLDY    31   0  26 S10       30.37F
EUREKA           N/A     37   7  28 S10       30.33F
$$

NVZ013-014-171100-
SOUTH CENTRAL NEVADA

CITY           SKY/WX    TMP DP  RH WIND       PRES   REMARKS
TONOPAH        MOCLDY    41  -4  15 N12       30.32F
$$

NVZ017-020-022-171100-
SOUTHERN NEVADA

CITY           SKY/WX    TMP DP  RH WIND       PRES   REMARKS
LAS VEGAS      PTCLDY    59  15  18 S5        30.13F
N. LAS VEGAS   CLEAR     63   3   9 NW6       30.13F
NELLIS AFB     CLEAR     51   8  17 CALM      30.13F
HENDERSON      CLEAR     54  12  18 S9        30.16F
MERCURY        PTCLDY    48   3  15 N5        30.18F
$$




USA.gov is the U.S. government's official web portal to all federal, state and local government web resources and services.